TimeCDT,TemperatureF,Dew PointF,Humidity,Sea Level PressureIn,VisibilityMPH,Wind Direction,Wind SpeedMPH,Gust SpeedMPH,PrecipitationIn,Events,Conditions,WindDirDegrees,DateUTC
12:53 AM,66.9,64.0,90,29.94,10.0,Calm,Calm,-,N/A,,Clear,0,2012-10-26 05:53:00
1:53 AM,66.0,64.0,93,29.95,10.0,ESE,4.6,-,N/A,,Clear,120,2012-10-26 06:53:00
2:53 AM,64.0,62.1,93,29.94,8.0,Calm,Calm,-,N/A,,Clear,0,2012-10-26 07:53:00
3:53 AM,64.0,62.1,93,29.94,7.0,Calm,Calm,-,N/A,,Clear,0,2012-10-26 08:53:00
4:53 AM,64.0,62.1,93,29.95,5.0,NW,3.5,-,N/A,,Mostly Cloudy,320,2012-10-26 09:53:00
5:11 AM,64.4,62.6,94,29.95,7.0,NW,5.8,-,N/A,,Overcast,310,2012-10-26 10:11:00
5:20 AM,66.2,64.4,94,29.95,8.0,NW,4.6,-,N/A,,Overcast,310,2012-10-26 10:20:00
5:53 AM,66.0,64.9,96,29.96,7.0,Calm,Calm,-,N/A,,Mostly Cloudy,0,2012-10-26 10:53:00
6:09 AM,66.2,64.4,94,29.95,7.0,Calm,Calm,-,N/A,,Mostly Cloudy,0,2012-10-26 11:09:00
6:53 AM,64.0,63.0,96,29.98,6.0,WNW,4.6,-,N/A,,Scattered Clouds,300,2012-10-26 11:53:00
7:03 AM,66.2,64.4,94,29.97,6.0,WNW,3.5,-,N/A,,Mostly Cloudy,300,2012-10-26 12:03:00
7:12 AM,66.2,64.4,94,29.98,6.0,NW,5.8,-,N/A,,Overcast,320,2012-10-26 12:12:00
7:20 AM,66.2,66.2,100,29.98,5.0,NW,4.6,-,N/A,,Overcast,320,2012-10-26 12:20:00
7:38 AM,68.0,66.2,94,29.99,2.0,NNW,8.1,-,N/A,,Overcast,340,2012-10-26 12:38:00
7:53 AM,68.0,66.9,96,30.00,2.5,North,6.9,-,N/A,,Overcast,350,2012-10-26 12:53:00
8:01 AM,68.0,66.2,94,29.99,3.0,North,8.1,-,N/A,,Overcast,350,2012-10-26 13:01:00
8:31 AM,68.0,66.2,94,29.99,6.0,NNW,9.2,-,N/A,,Overcast,340,2012-10-26 13:31:00
8:53 AM,68.0,66.0,93,30.01,5.0,North,6.9,-,N/A,,Overcast,350,2012-10-26 13:53:00
10:53 AM,64.9,61.0,87,30.04,10.0,North,13.8,-,N/A,,Overcast,10,2012-10-26 15:53:00
11:53 AM,62.1,57.0,84,30.07,10.0,North,13.8,-,N/A,,Overcast,360,2012-10-26 16:53:00
12:53 PM,59.0,54.0,83,30.07,10.0,NNW,9.2,-,N/A,,Overcast,340,2012-10-26 17:53:00
1:00 PM,60.8,53.6,77,30.06,10.0,North,8.1,-,N/A,,Overcast,350,2012-10-26 18:00:00
1:18 PM,60.8,53.6,77,30.07,10.0,North,10.4,-,N/A,,Overcast,360,2012-10-26 18:18:00
1:53 PM,59.0,53.1,81,30.07,10.0,North,10.4,-,N/A,,Overcast,350,2012-10-26 18:53:00
2:53 PM,59.0,52.0,78,30.06,10.0,NNW,9.2,-,N/A,,Overcast,340,2012-10-26 19:53:00
3:53 PM,55.9,51.1,84,30.09,10.0,NNW,9.2,-,N/A,,Overcast,330,2012-10-26 20:53:00
4:04 PM,55.4,51.8,88,30.07,10.0,NNW,12.7,-,N/A,Thunderstorm,Overcast,330,2012-10-26 21:04:00
4:33 PM,53.6,51.8,94,30.07,4.0,North,10.4,-,0.02,Rain,Rain,350,2012-10-26 21:33:00
4:53 PM,54.0,52.0,93,30.08,10.0,North,8.1,-,0.02,Rain,Light Rain,360,2012-10-26 21:53:00
5:10 PM,53.6,51.8,94,30.07,6.0,North,9.2,-,0.01,Rain,Light Rain,350,2012-10-26 22:10:00
5:17 PM,53.6,51.8,94,30.07,8.0,North,9.2,-,0.02,Rain,Light Rain,350,2012-10-26 22:17:00
5:53 PM,53.1,50.0,89,30.09,10.0,North,13.8,-,0.02,,Overcast,10,2012-10-26 22:53:00
6:00 PM,53.6,50.0,88,30.08,10.0,North,10.4,-,N/A,,Overcast,350,2012-10-26 23:00:00
6:06 PM,53.6,50.0,88,30.08,10.0,North,12.7,-,0.00,Rain,Light Rain,360,2012-10-26 23:06:00
6:53 PM,52.0,48.0,86,30.12,10.0,North,9.2,19.6,0.00,,Overcast,10,2012-10-26 23:53:00
7:00 PM,51.8,48.2,88,30.11,10.0,North,11.5,-,N/A,,Overcast,360,2012-10-27 00:00:00
7:53 PM,50.0,46.9,89,30.14,10.0,North,12.7,20.7,N/A,,Overcast,360,2012-10-27 00:53:00
8:53 PM,50.0,46.9,89,30.17,9.0,NNW,12.7,18.4,N/A,,Overcast,340,2012-10-27 01:53:00
9:53 PM,48.9,44.1,83,30.18,10.0,North,12.7,20.7,N/A,,Overcast,350,2012-10-27 02:53:00
10:01 PM,48.2,44.6,87,30.17,10.0,North,15.0,20.7,N/A,,Overcast,360,2012-10-27 03:01:00
10:33 PM,48.2,44.6,87,30.17,10.0,North,12.7,-,N/A,,Overcast,350,2012-10-27 03:33:00
10:53 PM,48.9,44.1,83,30.18,10.0,North,8.1,-,N/A,,Overcast,360,2012-10-27 03:53:00
11:53 PM,48.0,44.1,86,30.17,10.0,North,10.4,17.3,N/A,,Overcast,360,2012-10-27 04:53:00